Location: *
(45.3667°N, 7.2667°E)
Time: 12:07:55
(UTC+00:00)

Daily predictions for brighter satellites

Satellite Brightness Start Highest point End
(mag) Time Altitude Azimuth Time Altitude Azimuth Time Altitude Azimuth
Cosmos 1470 2.7 18:27:31 10° S 18:31:23 79° E 18:35:19 10° N
STARLINK-1111 4.2 18:27:26 10° WNW 18:31:29 54° SW 18:35:31 10° SE
Cosmos 1943 3.7 18:27:52 10° S 18:33:01 38° ESE 18:38:13 10° NE
ARGOS Delta rocket 4.2 18:29:35 10° SSE 18:34:47 67° ENE 18:40:13 10° N
CSL-04 Rocket 4.2 18:30:49 10° S 18:36:03 62° WSW 18:41:18 10° NNW
STARLINK-1073 4.4 18:32:26 10° WNW 18:36:27 50° SW 18:40:27 10° SE
Aureole 2 Rocket 2.3 18:33:51 10° NNW 18:37:21 72° ENE 18:40:44 10° SSE
BREEZE-M DEB (TANK) 2.5 18:30:21 10° WSW 18:37:47 73° SSE 18:40:30 10° ENE
CZ-2C R/B 3.2 18:33:36 10° SE 18:38:17 47° ENE 18:42:51 10° N
Meteor 2-15 4.4 18:32:47 10° S 18:38:50 79° E 18:44:55 10° N
H-2A R/B 2.1 18:42:50 10° SSE 18:48:01 66° ENE 18:53:05 10° N
SJ-11-01 4.3 18:45:28 10° SSE 18:50:11 89° W 18:54:57 10° NNW
NOSS 3-4 (A) 4.4 18:45:45 10° NNW 18:52:17 44° NE 18:58:54 12° ESE
NOSS 3-4 (C) 4.4 18:45:51 10° NNW 18:52:23 43° NE 18:58:59 12° ESE
ADEOS Rocket 4.1 18:48:15 10° N 18:54:31 51° WNW 19:00:10 10° SW
Cosmos 1656 Rocket 4.1 18:49:04 10° NNW 18:54:31 46° ENE 18:59:39 11° SE
SL-16 R/B 3.9 18:51:04 10° WSW 18:56:17 37° NW 19:01:31 10° NNE
CZ-2C R/B 3.6 18:54:13 10° NE 18:58:24 24° E 19:02:34 10° SSE
NOSS 3-3 (A) 3.9 18:55:03 10° SW 19:00:53 87° SE 19:07:31 10° NE
NOSS 3-3 (C) 3.9 18:55:09 10° SW 19:00:59 86° SE 19:07:36 10° NE
Cosmos 2251 Rocket 3.6 18:56:21 10° SSW 19:01:43 85° WNW 19:07:08 10° NNE
Cosmos 1726 2.1 18:58:08 10° S 19:01:49 58° E 19:05:29 10° NNE
ARGOS 3.1 18:58:25 10° SSE 19:03:47 76° ENE 19:09:11 10° N
MONITOR-E 3.6 19:03:00 10° SSE 19:05:38 84° ENE 19:08:17 10° N
STARLINK-60 4.1 19:03:47 10° SSW 19:06:31 25° SE 19:07:54 19° E
Cosmos 2184 Rocket 4.0 19:00:33 10° N 19:06:51 66° E 19:13:01 10° SSE
SJ-6B 2.9 19:03:13 10° SSE 19:07:17 68° ENE 19:11:25 10° N
ISS -2.2 19:04:25 10° WNW 19:07:25 30° SW 19:10:16 11° SSE
BREEZE M DEB (TANK) 3.9 19:07:37 10° S 19:10:03 19° ESE 19:14:25 10° ENE
Meteor 2-10 4.1 19:05:13 10° S 19:10:37 75° E 19:16:16 10° NNE
USA 186 2.0 19:08:59 10° S 19:12:20 73° W 19:15:35 10° NNW
STARLINK-67 4.4 19:11:19 10° NW 19:13:24 21° NNE 19:14:43 15° ENE
DMSP B5D2-2 4.5 19:10:50 10° NNE 19:15:45 40° E 19:20:39 10° SSE
Cosmos 1603 3.9 19:13:03 10° SSW 19:18:42 78° WNW 19:24:20 10° NNE
FREGAT/IRIS 3.3 19:16:36 10° S 19:19:15 47° W 19:21:54 10° NNW
IRIDIUM 104 4.4 19:14:34 10° N 19:19:49 83° W 19:25:01 10° S
Cosmos 2058 Rocket 3.8 19:16:34 13° SSE 19:20:07 33° E 19:24:09 10° NNE
Ariane Rocket 3.7 19:16:05 10° S 19:21:03 55° W 19:26:02 10° NNW
MOS 1 Rocket 3.9 19:18:28 10° NNE 19:23:35 44° E 19:28:46 10° SSE
Resurs 01 Rocket 2.2 19:21:42 21° ESE 19:24:02 37° ENE 19:28:06 10° N
ATLAS 2AS CENTAUR R/B 3.0 19:17:20 10° NW 19:24:58 65° NE 19:29:59 20° SE
USA 234 3.7 19:19:15 10° ENE 19:25:16 38° SE 19:31:15 10° SSW
Meteor 1-16 Rocket 4.1 19:22:39 10° S 19:28:02 88° E 19:33:37 10° NNE
Cosmos 2154 Rocket 4.1 19:22:46 10° N 19:29:05 63° ENE 19:34:52 12° SSE
Cosmos 1190 Rocket 4.4 19:24:47 10° S 19:29:43 41° ESE 19:34:41 10° NE
Nadezhda 1 Rocket 4.0 19:24:36 10° S 19:30:55 67° E 19:37:14 10° NNE
Cosmos 1140 Rocket 4.0 19:26:23 10° SSE 19:31:06 36° ESE 19:35:48 10° NE
SL-4 R/B 1.4 19:28:20 10° SW 19:31:43 76° SSE 19:33:43 23° ENE
Cosmos 1726 Rocket 3.5 19:29:01 10° S 19:33:23 70° E 19:37:49 10° NNE
Cosmos 1340 Rocket 3.1 19:32:48 21° SSE 19:35:09 43° E 19:39:00 10° NNE
ATLAS 5 CENTAUR R/B 2.0 19:33:06 10° S 19:36:52 36° ESE 19:41:01 10° NE
SL-24 R/B - RUBIN 2 4.3 19:35:02 10° SSW 19:40:21 52° ESE 19:46:21 10° NE
Cosmos 1825 Rocket 4.0 19:36:03 10° NNW 19:40:24 63° W 19:44:42 10° S
Cosmos 1328 3.8 19:36:27 10° N 19:40:28 87° W 19:43:15 19° S
Cosmos 1703 3.4 19:41:55 10° NNW 19:45:53 72° W 19:48:40 18° S
Meteor 2-17 Rocket 4.4 19:40:02 10° N 19:46:13 83° E 19:51:27 15° S
Cosmos 614 Rocket 3.9 19:42:47 10° SSW 19:48:00 83° ESE 19:53:15 10° NNE
Cosmos 1300 3.7 19:50:48 29° ENE 19:50:48 29° ENE 19:53:25 10° NNE
Cosmos 1943 Rocket 4.2 19:45:52 10° NW 19:50:19 25° WSW 19:54:48 10° SSW
SPOT 3 Rocket 3.8 19:45:41 12° S 19:50:29 71° WSW 19:55:43 10° NNW
Abrixas rocket 2.6 19:49:06 10° WNW 19:51:58 45° N 19:52:19 42° NNE
Cosmos 2369 Rocket 3.7 19:47:22 10° NW 19:52:23 33° WSW 19:57:21 10° SSW
SL-24 R/B 4.3 19:50:04 10° N 19:54:14 63° WNW 19:57:58 10° SSW
COSMOS 2455 3.2 19:48:21 10° NNW 19:54:14 51° NE 19:56:39 33° ESE
CZ-2C R/B 4.2 19:51:24 10° N 19:56:06 64° WNW 20:00:40 10° SSW
Cosmos 921 Rocket 3.1 19:52:27 10° N 19:56:33 52° ENE 19:57:12 47° ESE
Cosmos 676 Rocket 4.3 19:56:21 33° SSE 19:58:01 44° ESE 20:02:59 10° NNE
Cosmos 407 Rocket 3.3 19:54:13 10° SSW 19:59:22 87° ESE 20:04:32 10° NNE
Cosmos 2228 3.8 19:55:38 10° SSW 19:59:48 51° WNW 20:04:02 10° N
Cosmos 1953 Rocket 4.1 19:56:22 10° NNW 20:00:46 58° W 20:04:01 18° S
Cosmos 1908 4.0 19:59:13 10° SSW 20:02:59 51° WNW 20:06:47 10° N
Cosmos 1818 4.4 20:02:23 10° SW 20:07:41 52° NW 20:13:02 10° NNE
ERS-1 Rocket 4.0 20:07:39 29° ENE 20:07:57 29° ENE 20:12:14 10° N
ERBS 4.5 20:07:43 10° NNW 20:10:08 18° NNE 20:10:29 18° NNE
Landsat 7 4.2 20:11:38 42° E 20:11:56 43° ENE 20:16:26 10° N
SPOT 1/Viking Rocket 4.0 20:14:31 41° E 20:15:06 43° ENE 20:20:02 10° N
MetOp-B 4.0 20:15:08 46° SSE 20:16:46 76° ENE 20:22:09 10° N
APEX 4.5 20:12:25 10° NNW 20:18:55 67° WSW 20:21:10 37° S
Cosmos 1461 3.0 20:14:43 10° NW 20:19:17 90° ESE 20:19:51 69° SE
Cosmos 1954 Rocket 3.9 20:21:03 46° S 20:22:30 68° ESE 20:27:42 10° NNE
SAR-Lupe-2 4.1 20:23:48 10° N 20:26:39 53° N 20:26:39 53° N
CZ-4C R/B 4.4 20:27:37 10° NNW 20:33:01 24° NNE 20:37:08 16° ENE
Cosmos 1697 Rocket 4.2 20:30:28 10° N 20:34:48 22° NE 20:35:27 21° ENE
SPOT 5 3.8 20:36:47 32° NE 20:36:47 32° NE 20:39:43 10° N
Cosmos 1076 Rocket 4.1 20:31:47 10° N 20:35:03 45° NNE 20:35:03 45° NNE
CZ-2C R/B 3.5 20:33:58 10° N 20:38:54 46° WNW 20:43:50 10° SW
NOSS 3-4 (A) 4.3 20:36:36 10° NW 20:43:28 55° WSW 20:46:22 36° S
NOSS 3-4 (C) 4.3 20:36:42 10° NW 20:43:35 55° WSW 20:46:27 37° S
Cosmos 2341 Rocket 4.3 20:37:31 10° NNW 20:43:51 65° W 20:46:40 34° SSW
Cosmos 2058 3.8 20:41:27 10° N 20:44:18 42° N 20:44:18 42° N
Cosmos 1763 Rocket 4.1 20:45:07 10° N 20:49:35 45° NE 20:49:35 45° NE
Terra 2.8 20:55:02 36° NNE 20:55:02 36° NNE 20:58:22 10° N
RESURS DK-1 4.4 20:54:20 10° N 20:56:27 21° NNE 20:56:27 21° NNE
Resurs 01 Rocket 3.6 20:59:16 20° WSW 21:00:37 23° W 21:04:09 10° NW
Cosmos 2218 Rocket 4.0 20:55:11 10° NNW 21:01:23 76° W 21:02:26 62° SSW
Cosmos 1980 Rocket 3.9 20:58:55 10° N 21:03:02 20° NE 21:03:10 20° NE
Cosmos 1892 4.5 20:59:50 10° N 21:01:53 30° N 21:01:53 30° N
USA 234 3.4 21:02:03 10° NE 21:08:35 73° NW 21:15:05 10° WSW
Cosmos 1656 4.0 21:05:36 10° NNW 21:10:37 55° NNE 21:10:37 55° NNE
SL-4 R/B 4.4 21:08:22 10° WNW 21:09:22 17° WNW 21:09:22 17° WNW
Iridium 4 Rocket 4.2 21:07:47 10° N 21:10:42 39° NNW 21:10:42 39° NNW
Spot 2 Rocket 4.4 21:11:43 39° WSW 21:12:12 40° W 21:17:01 10° NNW
ATLAS 2AS CENTAUR R/B 3.9 21:09:03 10° NW 21:15:25 32° WSW 21:17:26 27° SW
ATLAS 5 CENTAUR R/B 3.3 21:17:40 10° WSW 21:21:31 32° NW 21:25:48 10° NNE
Cosmos 841 Rocket 4.5 21:20:26 10° NNW 21:24:13 41° NNE 21:24:13 41° NNE
Mayak 1.5 21:30:14 10° NNE 21:30:35 12° NNE 21:30:35 12° NNE
COSMOS 2455 4.1 21:34:42 10° NW 21:39:49 31° WSW 21:39:49 31° WSW
Nadezhda 3 Rocket 4.3 21:43:48 63° NNE 21:43:48 63° NNE 21:48:59 10° N
COSMOS 2406 4.3 21:45:30 36° NNE 21:45:30 36° NNE 21:48:48 10° NNE
ERS-1 Rocket 4.3 21:47:39 34° WNW 21:47:39 34° WNW 21:51:17 10° NNW
ATLAS CENTAUR R/B 4.1 21:46:43 10° NNW 21:47:36 15° NNW 21:47:36 15° NNW
Cosmos 1697 Rocket 3.9 22:13:42 10° NNW 22:17:11 39° NW 22:17:11 39° NW
CZ-4C R/B 3.1 22:15:47 10° NW 22:22:18 63° NNE 22:22:18 63° NNE
Terra 4.3 22:33:54 17° WNW 22:33:54 17° WNW 22:35:32 10° NW
SL-16 R/B 3.9 22:28:50 10° N 22:32:20 26° NNE 22:32:20 26° NNE
Cosmos 2360 Rocket 4.4 22:36:04 10° N 22:39:34 17° NE 22:39:34 17° NE
Cosmos 2322 Rocket 4.0 22:38:46 10° N 22:42:08 26° NNE 22:42:08 26° NNE
Cosmos 1980 Rocket 3.7 22:42:04 10° NNW 22:44:56 31° NNW 22:44:56 31° NNW
USA 234 4.5 22:45:09 10° NE 22:51:02 37° NNW 22:56:54 10° WNW
Mayak 1.9 23:06:53 10° NNW 23:07:09 11° NNW 23:07:09 11° NNW
Cosmos 2082 Rocket 3.9 23:15:18 30° N 23:15:18 30° N 23:18:19 10° NNE
Cosmos 2344 4.3 23:08:20 10° NW 23:18:08 79° SW 23:18:38 78° SSW
Cosmos 2219 Rocket 4.4 23:35:49 10° N 23:39:34 18° NE 23:40:10 17° NE
